Hourly Data Report for June 23, 2021

LYTTON RCS
BRITISH COLUMBIA
Current Station Operator: ECCC - MSC

50°13'28.000" N
121°34'55.000" W
225.00 m
1114746
71765
VLY

Download Data

Hourly Data (June 2021)
Hourly Data Report for June 23, 2021
TIME
LST
Temp Definition
°C
Dew Point Definition
°C
Rel Hum Definition
%
Precip. Amount Definition
mm

Wind Dir Definition
10's deg

Wind Spd Definition
km/h
Visibility Definition
km
Stn Press Definition
kPa
Hmdx Definition


Wind Chill Definition


Weather Definition


00:00 23.1 7.4 36 0.0 18 32   97.97     LegendNANA
01:00 22.3 7.3 38 0.0 18 33   98.04     LegendNANA
02:00 21.5 7.7 41 0.0 18 31   98.11     LegendNANA
03:00 20.8 8.1 44 0.0 18 27   98.16     LegendNANA
04:00 19.9 8.3 47 0.0 17 28   98.23     LegendNANA
05:00 19.3 8.6 50 0.0 17 19   98.28     LegendNANA
06:00 18.9 8.8 52 0.0 15 17   98.33     LegendNANA
07:00 20.6 9.6 49 0.0 17 23   98.35     LegendNANA
08:00 23.0 9.7 43 0.0 17 31   98.32     LegendNANA
09:00 24.7 9.3 38 0.0 18 30   98.24 26   LegendNANA
10:00 27.6 10.6 35 0.0 18 32   98.19 29   LegendNANA
11:00 29.6 10.9 31 0.0 18 26   98.14 31   LegendNANA
12:00 30.0 10.6 30 0.0 20 23   98.07 32   LegendNANA
13:00 30.1 10.9 31 0.0 19 22   98.05 32   LegendNANA
14:00 30.8 11.4 30 0.0 20 20   98.05 33   LegendNANA
15:00 30.4 11.0 30 0.0 19 23   98.03 32   LegendNANA
16:00 32.2 11.3 28 0.0 19 26   98.00 34   LegendNANA
17:00 31.3 11.6 30 0.0 19 20   98.00 33   LegendNANA
18:00 30.4 11.5 31 0.0 19 24   98.03 32   LegendNANA
19:00 27.7 12.2 38 0.0 19 22   98.16 30   LegendNANA
20:00 26.5 12.4 42 0.0 19 24   98.25 29   LegendNANA
21:00 25.3 12.4 45 0.0 18 26   98.42 28   LegendNANA
22:00 24.2 11.8 46 0.0 18 28   98.55 26   LegendNANA
23:00 23.2 11.7 49 0.0 19 17   98.66 25   LegendNANA

Notes on Data Quality.

Legend

  • E = Estimated
  • M = Missing
  • NA = Not Available*
  • [empty] = Indicates an unobserved value
Date modified: